| time (UTC) | temp F | wind direction | speed knots | gust knots | rain 1hr in | rain 24hr in | rain mn in | humidity % | barometer mb |
| 20260903003044 | 79 | 329 | 0.0 | 2.6 | 0.00 | 0.00 | 0.00 | 78 | 1015.2 |
| 20260903001541 | 79 | 23 | 0.0 | 3.5 | 0.00 | 0.00 | 0.00 | 77 | 1015.0 |
| 20260903000040 | 80 | 331 | 0.0 | 4.3 | 0.00 | 0.00 | 0.00 | 77 | 1015.1 |
| 20260902234541 | 80 | 11 | 0.0 | 0.0 | 0.00 | 0.00 | 0.00 | 75 | 1014.9 |
| 20260902233044 | 81 | 61 | 0.0 | 0.0 | 0.00 | 0.00 | 0.00 | 74 | 1015.2 |
| 20260902231548 | 81 | 115 | 0.0 | 5.2 | 0.00 | 0.00 | 0.00 | 75 | 1015.5 |
| 20260902230039 | 81 | 117 | 0.9 | 4.3 | 0.00 | 0.00 | 0.00 | 74 | 1015.8 |
| 20260902224546 | 81 | 179 | 0.0 | 0.0 | 0.00 | 0.00 | 0.00 | 75 | 1015.6 |
| 20260902223043 | 81 | 134 | 0.0 | 3.5 | 0.00 | 0.00 | 0.00 | 75 | 1015.8 |
| 20260902221540 | 81 | 138 | 3.5 | 6.1 | 0.00 | 0.00 | 0.00 | 74 | 1016.1 |
| 20260902220052 | 81 | 138 | 1.7 | 7.8 | 0.00 | 0.00 | 0.00 | 73 | 1015.0 |
| 20260902214550 | 81 | 118 | 3.5 | 6.1 | 0.00 | 0.00 | 0.00 | 73 | 1015.3 |
| 20260902213040 | 81 | 127 | 2.6 | 7.8 | 0.00 | 0.00 | 0.00 | 73 | 1015.2 |
| 20260902211550 | 81 | 84 | 2.6 | 6.1 | 0.00 | 0.00 | 0.00 | 74 | 1015.5 |
| 20260902210050 | 81 | 118 | 5.2 | 8.7 | 0.00 | 0.00 | 0.00 | 74 | 1015.5 |
| 20260902204550 | 82 | 103 | 5.2 | 13.9 | 0.00 | 0.00 | 0.00 | 72 | 1016.2 |
| 20260902203041 | 84 | 103 | 5.2 | 10.4 | 0.00 | 0.00 | 0.00 | 69 | 1015.9 |
| 20260902201603 | 84 | 144 | 7.8 | 13.9 | 0.00 | 0.00 | 0.00 | 69 | 1016.1 |
| 20260902200046 | 84 | 136 | 5.2 | 9.6 | 0.00 | 0.00 | 0.00 | 69 | 1016.2 |
| 20260902194543 | 85 | 108 | 5.2 | 16.5 | 0.00 | 0.00 | 0.00 | 68 | 1016.8 |
| 20260902193049 | 88 | 79 | 19.1 | 29.5 | 0.00 | 0.00 | 0.00 | 63 | 1016.6 |
| 20260902191549 | 93 | 93 | 8.7 | 13.9 | 0.00 | 0.00 | 0.00 | 62 | 1015.7 |
| 20260902190042 | 92 | 71 | 4.3 | 14.8 | 0.00 | 0.00 | 0.00 | 62 | 1015.5 |
| 20260902184543 | 93 | 90 | 4.3 | 13.0 | 0.00 | 0.00 | 0.00 | 61 | 1016.1 |
| 20260902183050 | 93 | 125 | 6.1 | 10.4 | 0.00 | 0.00 | 0.00 | 60 | 1016.2 |
| 20260902181554 | 93 | 94 | 3.5 | 8.7 | 0.00 | 0.00 | 0.00 | 60 | 1016.1 |
| 20260902180055 | 93 | 5 | 3.5 | 5.2 | 0.00 | 0.00 | 0.00 | 60 | 1016.3 |
| 20260902174549 | 93 | 88 | 3.5 | 7.0 | 0.00 | 0.00 | 0.00 | 60 | 1016.6 |
| 20260902173040 | 93 | 92 | 4.3 | 8.7 | 0.00 | 0.00 | 0.00 | 60 | 1016.5 |
| 20260902171540 | 92 | 65 | 1.7 | 7.8 | 0.00 | 0.00 | 0.00 | 61 | 1016.6 |
| 20260902170050 | 91 | 319 | 1.7 | 8.7 | 0.00 | 0.00 | 0.00 | 62 | 1016.5 |
| 20260902164552 | 91 | 144 | 0.9 | 7.0 | 0.00 | 0.00 | 0.00 | 62 | 1016.8 |
| 20260902163047 | 91 | 113 | 3.5 | 6.1 | 0.00 | 0.00 | 0.00 | 62 | 1016.7 |
| 20260902161600 | 91 | 111 | 2.6 | 7.0 | 0.00 | 0.00 | 0.00 | 62 | 1016.7 |
| 20260902160049 | 90 | 165 | 0.0 | 3.5 | 0.00 | 0.00 | 0.00 | 62 | 1016.7 |
| 20260902154557 | 90 | 133 | 2.6 | 7.0 | 0.00 | 0.00 | 0.00 | 63 | 1016.5 |
| 20260902153050 | 89 | 59 | 0.9 | 3.5 | 0.00 | 0.00 | 0.00 | 65 | 1016.7 |
| 20260902151545 | 88 | 72 | 0.9 | 5.2 | 0.00 | 0.00 | 0.00 | 67 | 1016.8 |
| 20260902150041 | 87 | 349 | 2.6 | 7.0 | 0.00 | 0.00 | 0.00 | 67 | 1017.0 |
| 20260902144550 | 87 | 66 | 3.5 | 7.0 | 0.00 | 0.00 | 0.00 | 67 | 1016.9 |
| 20260902143056 | 86 | 35 | 2.6 | 7.8 | 0.00 | 0.00 | 0.00 | 73 | 1017.1 |
| 20260902141541 | 86 | 355 | 0.9 | 4.3 | 0.00 | 0.00 | 0.00 | 73 | 1016.7 |
| 20260902140042 | 84 | 5 | 0.9 | 4.3 | 0.00 | 0.00 | 0.00 | 76 | 1016.7 |
| 20260902134553 | 83 | 340 | 0.0 | 3.5 | 0.00 | 0.00 | 0.00 | 77 | 1016.4 |
| 20260902133059 | 82 | 32 | 2.6 | 3.5 | 0.00 | 0.00 | 0.00 | 78 | 1016.3 |
| 20260902131545 | 82 | 274 | 0.0 | 0.0 | 0.00 | 0.00 | 0.00 | 80 | 1016.1 |
| 20260902130054 | 81 | 24 | 0.9 | 4.3 | 0.00 | 0.00 | 0.00 | 81 | 1015.9 |
| 20260902124556 | 80 | 25 | 0.0 | 4.3 | 0.00 | 0.00 | 0.00 | 82 | 1015.9 |
| 20260902123053 | 80 | 47 | 2.6 | 4.3 | 0.00 | 0.00 | 0.00 | 82 | 1015.8 |
| 20260902121558 | 79 | 11 | 0.0 | 0.0 | 0.00 | 0.00 | 0.00 | 82 | 1016.1 |
| 20260902120052 | 79 | 15 | 0.0 | 0.0 | 0.00 | 0.00 | 0.00 | 82 | 1015.9 |
| 20260902114549 | 78 | 355 | 0.0 | 0.0 | 0.00 | 0.00 | 0.00 | 83 | 1015.9 |
| 20260902113047 | 77 | 340 | 0.0 | 0.0 | 0.00 | 0.00 | 0.00 | 83 | 1015.8 |
| 20260902111542 | 78 | 28 | 0.0 | 0.0 | 0.00 | 0.00 | 0.00 | 83 | 1015.7 |
| 20260902110049 | 78 | 345 | 0.0 | 0.0 | 0.00 | 0.00 | 0.00 | 82 | 1015.6 |
| 20260902104551 | 78 | 338 | 0.0 | 0.9 | 0.00 | 0.00 | 0.00 | 81 | 1015.5 |
| 20260902103047 | 78 | 355 | 0.0 | 0.0 | 0.00 | 0.00 | 0.00 | 81 | 1015.5 |
| 20260902101555 | 78 | 355 | 0.0 | 0.0 | 0.00 | 0.00 | 0.00 | 81 | 1015.1 |
| 20260902100050 | 78 | 340 | 0.0 | 0.0 | 0.00 | 0.00 | 0.00 | 81 | 1015.1 |
| 20260902094549 | 79 | 22 | 0.0 | 0.0 | 0.00 | 0.00 | 0.00 | 81 | 1015.2 |
| 20260902093123 | 79 | 360 | 0.9 | 2.6 | 0.00 | 0.00 | 0.00 | 81 | 1014.9 |
| 20260902091554 | 80 | 338 | 0.0 | 0.0 | 0.00 | 0.00 | 0.00 | 78 | 1014.8 |
| 20260902090056 | 80 | 112 | 0.0 | 0.0 | 0.00 | 0.00 | 0.00 | 78 | 1015.1 |
| 20260902084557 | 79 | 294 | 0.0 | 0.9 | 0.00 | 0.00 | 0.00 | 78 | 1015.0 |
| 20260902083055 | 79 | 250 | 0.0 | 0.0 | 0.00 | 0.00 | 0.00 | 78 | 1014.9 |
| 20260902081610 | 79 | 309 | 0.0 | 3.5 | 0.00 | 0.00 | 0.00 | 80 | 1014.9 |
| 20260902080051 | 79 | 328 | 0.0 | 1.7 | 0.00 | 0.00 | 0.00 | 82 | 1015.0 |
| 20260902074559 | 80 | 5 | 0.0 | 2.6 | 0.00 | 0.00 | 0.00 | 81 | 1014.9 |
| 20260902073053 | 80 | 9 | 0.0 | 3.5 | 0.00 | 0.00 | 0.00 | 76 | 1015.0 |
| 20260902071602 | 81 | 355 | 0.0 | 0.9 | 0.00 | 0.00 | 0.00 | 79 | 1015.0 |
| 20260902070053 | 81 | 360 | 0.0 | 0.0 | 0.00 | 0.00 | 0.00 | 81 | 1015.0 |
| 20260902064614 | 81 | 13 | 0.0 | 0.9 | 0.00 | 0.00 | 0.00 | 77 | 1014.4 |
| 20260902063058 | 82 | 323 | 0.0 | 0.0 | 0.00 | 0.00 | 0.00 | 78 | 1014.5 |
| 20260902061559 | 82 | 85 | 0.0 | 0.9 | 0.00 | 0.00 | 0.00 | 80 | 1014.4 |
| 20260902060042 | 83 | 67 | 0.0 | 2.6 | 0.00 | 0.00 | 0.00 | 77 | 1014.4 |
| 20260902054721 | 83 | 317 | 1.7 | 4.3 | 0.00 | 0.00 | 0.00 | 75 | 1014.3 |
| 20260902053052 | 83 | 301 | 0.0 | 1.7 | 0.00 | 0.00 | 0.00 | 75 | 1014.3 |
| 20260902051546 | 83 | 259 | 1.7 | 7.0 | 0.00 | 0.00 | 0.00 | 75 | 1014.4 |
| 20260902050108 | 83 | 5 | 0.0 | 0.0 | 0.00 | 0.00 | 0.00 | 77 | 1014.6 |
| 20260902044606 | 83 | 275 | 0.0 | 0.0 | 0.00 | 0.00 | 0.00 | 78 | 1014.6 |
| 20260902043050 | 83 | 311 | 0.0 | 0.0 | 0.00 | 0.00 | 0.00 | 78 | 1014.6 |
| 20260902041546 | 84 | 355 | 0.0 | 0.0 | 0.00 | 0.00 | 0.00 | 78 | 1014.6 |
| 20260902040055 | 84 | 308 | 0.0 | 0.0 | 0.00 | 0.00 | 0.00 | 77 | 1014.4 |
| 20260902034600 | 84 | 308 | 0.0 | 0.9 | 0.00 | 0.00 | 0.00 | 76 | 1014.3 |
| 20260902033103 | 84 | 251 | 0.9 | 3.5 | 0.00 | 0.00 | 0.00 | 75 | 1014.0 |
| 20260902031547 | 85 | 279 | 2.6 | 6.1 | 0.00 | 0.00 | 0.00 | 74 | 1013.9 |
| 20260902030055 | 85 | 313 | 1.7 | 5.2 | 0.00 | 0.00 | 0.00 | 73 | 1013.7 |
| 20260902024552 | 86 | 265 | 1.7 | 4.3 | 0.00 | 0.00 | 0.00 | 71 | 1013.9 |
| 20260902023053 | 87 | 319 | 0.9 | 3.5 | 0.00 | 0.00 | 0.00 | 70 | 1013.7 |
| 20260902021551 | 87 | 314 | 1.7 | 4.3 | 0.00 | 0.00 | 0.00 | 69 | 1013.6 |
| 20260902020043 | 87 | 266 | 0.9 | 4.3 | 0.00 | 0.00 | 0.00 | 69 | 1013.6 |
| 20260902014553 | 87 | 255 | 3.5 | 7.0 | 0.00 | 0.00 | 0.00 | 70 | 1013.6 |
| 20260902013050 | 87 | 284 | 1.7 | 7.0 | 0.00 | 0.00 | 0.00 | 70 | 1013.5 |
| 20260902011549 | 87 | 228 | 3.5 | 6.1 | 0.00 | 0.00 | 0.00 | 70 | 1013.2 |
| 20260902010045 | 88 | 254 | 5.2 | 7.8 | 0.00 | 0.00 | 0.00 | 69 | 1012.6 |
| 20260902004555 | 89 | 282 | 2.6 | 7.0 | 0.00 | 0.00 | 0.00 | 67 | 1012.7 |